Weather History for KMMK - April, 2014

Change the Weather History Date:

Thursday, April 17, 2014

  Actual Average (KHVN) Record (KHVN)
Temperature  
Mean Temperature 40 °F -  
Max Temperature 51 °F 57 °F 86 °F (1976)
Min Temperature 30 °F 40 °F 30 °F (2005)
Degree Days  
Heating Degree Days 25    
Moisture  
Dew Point 23 °F    
Average Humidity 57    
Maximum Humidity 79    
Minimum Humidity 32    
Precipitation  
Precipitation 0.00 in - - ()
Sea Level Pressure  
Sea Level Pressure 30.68 in    
Wind  
Wind Speed 6 mph (NE)    
Max Wind Speed 12 mph    
Max Gust Speed -    
Visibility 10 miles    
Events      
Averages and records for this station are not official NWS values.
T = Trace of Precipitation, MM = Missing Value Source: NWS Daily Summary

Daily Weather History Graph

Daily Weather History Graph

Search for Another Location

Airport or City:

Trip Planner

Search our weather history database for the weather conditions in past years. The results will help you decide how hot, cold, wet, or windy it might be!

Date:

Astronomy

Apr. 17, 2014 Rise Set
Actual Time 6:08 AM EDT 7:33 PM EDT
Civil Twilight 5:39 AM EDT 8:02 PM EDT
Nautical Twilight 5:04 AM EDT 8:37 PM EDT
Astronomical Twilight 4:28 AM EDT 9:14 PM EDT
Moon 10:18 PM EDT (4/17) 7:36 AM EDT (4/17)
Length of Visible Light 14h 23m
Length of Day
13h 25m
Waning Gibbous, 94% of the Moon is Illuminated
Apr 17
Waning Gibbous
Apr 22
Last Quarter
Apr 29
New
May 6
First Quarter
May 14
Full

Hourly Weather History & Observations

Time (EDT) Temp. Windchill Dew Point Humidity Pressure Visibility Wind Dir Wind Speed Gust Speed Precip Events Conditions
12:53 AM 30.9 °F 27.5 °F 23.0 °F 72% 30.62 in 10.0 mi NNW 3.5 mph - N/A   Clear
1:53 AM 32.0 °F - 21.9 °F 66% 30.64 in 10.0 mi Calm Calm - N/A   Clear
2:53 AM 32.0 °F 27.5 °F 19.0 °F 59% 30.65 in 10.0 mi NNE 4.6 mph - N/A   Clear
3:53 AM 32.0 °F 24.8 °F 19.9 °F 61% 30.67 in 10.0 mi NNE 8.1 mph - N/A   Clear
4:53 AM 30.9 °F 24.3 °F 18.0 °F 59% 30.69 in 10.0 mi NNE 6.9 mph - N/A   Clear
5:53 AM 30.0 °F 24.1 °F 19.0 °F 64% 30.70 in 10.0 mi North 5.8 mph - N/A   Clear
6:53 AM 30.9 °F 25.2 °F 19.0 °F 61% 30.72 in 10.0 mi North 5.8 mph - N/A   Clear
7:53 AM 34.0 °F 26.6 °F 19.0 °F 54% 30.74 in 10.0 mi NNE 9.2 mph - N/A   Clear
8:53 AM 36.0 °F 29.6 °F 19.9 °F 52% 30.75 in 10.0 mi NE 8.1 mph - N/A   Clear
9:53 AM 39.9 °F 33.4 °F 21.0 °F 47% 30.76 in 10.0 mi NE 10.4 mph - N/A   Clear
10:53 AM 42.1 °F 35.7 °F 21.0 °F 43% 30.76 in 10.0 mi NNE 11.5 mph - N/A   Clear
1:53 PM 48.9 °F - 21.9 °F 35% 30.71 in 10.0 mi North - - N/A   Clear
2:53 PM 50.0 °F - 21.0 °F 32% 30.69 in 10.0 mi NE 6.9 mph - N/A   Clear
3:53 PM 48.0 °F - 27.0 °F 44% 30.68 in 10.0 mi South 8.1 mph - N/A   Clear
4:53 PM 46.9 °F - 28.9 °F 50% 30.67 in 10.0 mi South 10.4 mph - N/A   Clear
5:53 PM 46.0 °F 41.0 °F 28.9 °F 51% 30.66 in 10.0 mi South 10.4 mph - N/A   Clear
6:53 PM 43.0 °F 37.7 °F 28.9 °F 58% 30.67 in 10.0 mi South 9.2 mph - N/A   Clear
7:53 PM 39.9 °F 36.7 °F 28.9 °F 65% 30.67 in 10.0 mi SSW 4.6 mph - N/A   Clear
8:53 PM 37.9 °F - 28.9 °F 70% 30.67 in 10.0 mi Calm Calm - N/A   Clear
9:53 PM 36.0 °F - 30.0 °F 79% 30.67 in 10.0 mi Calm Calm - N/A   Clear
10:53 PM 36.0 °F 32.1 °F 25.0 °F 64% 30.64 in 10.0 mi ENE 4.6 mph - N/A   Clear
11:53 PM 35.1 °F 30.1 °F 25.0 °F 67% 30.63 in 10.0 mi NNE 5.8 mph - N/A   Clear